CW8468 Weather Reports


Display with metric or nautical units.
time (UTC)temp
F
wind
direction
speed
MPH
gust
MPH
rain 1hr
in
rain 24hr
in
rain mn
in
humidity
%
barometer
mb
20260904032504 79 117 1.0 2.0 0.00 0.66 0.66 90 1012.2
20260904032006 79 140 1.0 3.0 0.00 0.66 0.66 90 1012.2
20260904031520 79 137 0.0 3.0 0.00 0.66 0.66 90 1012.2
20260904031005 79 112 1.0 2.0 0.00 0.66 0.66 90 1012.2
20260904030505 79 148 1.0 2.0 0.00 0.66 0.66 90 1012.3
20260904030029 79 144 0.0 3.0 0.00 0.66 0.66 91 1012.2
20260904025504 79 156 0.0 3.0 0.00 0.66 0.66 91 1012.3
20260904025004 79 145 0.0 1.0 0.00 0.66 0.66 90 1012.2
20260904024518 79 145 0.0 0.0 0.00 0.66 0.66 90 1012.2
20260904024006 79 145 0.0 1.0 0.00 0.66 0.66 90 1012.2
20260904023504 79 145 0.0 1.0 0.00 0.66 0.66 90 1012.1
20260904022503 79 150 0.0 1.0 0.00 0.66 0.66 90 1011.8
20260904022005 79 128 0.0 1.0 0.00 0.66 0.66 90 1011.7
20260904021519 79 104 0.0 1.0 0.00 0.66 0.66 90 1011.7
20260904021005 79 104 0.0 1.0 0.00 0.66 0.66 90 1011.7
20260904020504 79 104 0.0 1.0 0.00 0.66 0.66 90 1011.7
20260904020030 79 104 0.0 1.0 0.00 0.66 0.66 90 1011.7
20260904015504 79 104 0.0 1.0 0.00 0.66 0.66 90 1011.6
20260904015005 79 104 0.0 1.0 0.00 0.66 0.66 90 1011.5
20260904014520 79 104 0.0 1.0 0.00 0.66 0.66 90 1011.4
20260904014005 79 104 0.0 1.0 0.00 0.66 0.66 90 1011.4
20260904013504 79 105 0.0 1.0 0.00 0.66 0.66 90 1011.4
20260904013027 79 104 0.0 1.0 0.00 0.66 0.66 90 1011.4
20260904012006 79 104 0.0 1.0 0.00 0.66 0.66 90 1011.3
20260904011518 79 104 0.0 1.0 0.00 0.66 0.66 90 1011.3
20260904011006 79 104 0.0 2.0 0.00 0.66 0.66 90 1011.2
20260904005502 79 97 1.0 3.0 0.00 0.66 0.66 90 1011.1
20260904005005 79 98 1.0 3.0 0.00 0.66 0.66 90 1011.1
20260904004520 79 139 0.0 1.0 0.00 0.66 0.66 90 1011.1
20260904003503 79 78 0.0 2.0 0.00 0.66 0.66 90 1011.3
20260904003026 79 104 1.0 2.0 0.00 0.66 0.66 90 1011.2
20260904002502 79 112 0.0 2.0 0.00 0.66 0.66 90 1011.3
20260904001518 80 42 1.0 2.0 0.00 0.66 0.66 90 1011.3
20260904001003 80 70 0.0 2.0 0.00 0.66 0.66 90 1011.4
20260904000503 80 52 0.0 1.0 0.00 0.66 0.66 90 1011.5
20260903235503 80 41 0.0 2.0 0.00 0.66 0.66 90 1011.5
20260903235004 80 10 0.0 1.0 0.00 0.66 0.66 90 1011.4
20260903234003 79 32 0.0 2.0 0.00 0.66 0.66 90 1011.5
20260903233503 80 96 1.0 2.0 0.00 0.66 0.66 90 1011.5
20260903233025 80 70 0.0 2.0 0.00 0.66 0.66 90 1011.5
20260903232502 79 77 0.0 2.0 0.00 0.66 0.66 90 1011.6
20260903232004 79 77 0.0 2.0 0.00 0.66 0.66 90 1011.7
20260903230503 79 45 1.0 3.0 0.00 0.66 0.66 90 1011.7
20260903230027 79 5 1.0 3.0 0.00 0.66 0.66 90 1011.7
20260903225505 79 89 1.0 3.0 0.00 0.66 0.66 90 1011.7
20260903224519 79 8 1.0 3.0 0.00 0.66 0.66 90 1011.7
20260903224005 79 68 1.0 3.0 0.00 0.66 0.66 90 1011.8
20260903223504 78 31 1.0 3.0 0.00 0.66 0.66 90 1011.8
20260903223028 78 86 1.0 3.0 0.00 0.66 0.66 90 1011.8
20260903222503 78 353 1.0 4.0 0.00 0.66 0.66 90 1011.7
20260903222006 78 42 2.0 4.0 0.01 0.66 0.66 90 1011.6
20260903221005 78 343 2.0 4.0 0.01 0.66 0.66 90 1011.7
20260903220505 78 84 2.0 6.0 0.01 0.66 0.66 90 1011.8
20260903220029 78 52 1.0 6.0 0.01 0.66 0.66 90 1011.9
20260903215503 78 146 1.0 4.0 0.02 0.66 0.66 90 1012.1
20260903215004 78 67 1.0 6.0 0.02 0.66 0.66 90 1012.2
20260903214519 78 25 1.0 6.0 0.03 0.66 0.66 90 1012.2
20260903214004 78 84 1.0 4.0 0.04 0.66 0.66 90 1012.2
20260903213504 78 137 1.0 3.0 0.05 0.66 0.66 90 1012.3
20260903213027 78 91 1.0 4.0 0.06 0.66 0.66 90 1012.3
20260903212503 79 54 1.0 3.0 0.07 0.66 0.66 90 1012.4
20260903212006 79 93 1.0 2.0 0.07 0.65 0.65 91 1012.5
20260903211004 78 32 1.0 4.0 0.08 0.65 0.65 90 1012.4
20260903210504 78 12 1.0 4.0 0.09 0.65 0.65 90 1012.5
20260903205503 77 341 0.0 2.0 0.09 0.64 0.64 90 1012.7
20260903205005 77 322 0.0 2.0 0.09 0.63 0.63 90 1012.7
20260903204518 77 322 0.0 2.0 0.09 0.63 0.63 90 1012.7
20260903204004 77 322 0.0 2.0 0.09 0.62 0.62 90 1012.8
20260903203026 77 322 0.0 2.0 0.07 0.60 0.60 90 1013.0
20260903202004 77 294 0.0 1.0 0.05 0.58 0.58 89 1013.1
20260903201518 77 294 0.0 1.0 0.05 0.57 0.57 89 1013.0
20260903201005 77 294 0.0 1.0 0.05 0.57 0.57 89 1012.9
20260903200503 77 294 0.0 1.0 0.04 0.56 0.56 89 1012.9
20260903200025 77 312 0.0 2.0 0.04 0.56 0.56 89 1012.8
20260903195502 77 312 1.0 2.0 0.03 0.55 0.55 89 1013.0
20260903195003 77 215 0.0 2.0 0.02 0.54 0.54 89 1013.1
20260903194516 77 185 0.0 2.0 0.03 0.54 0.54 89 1013.1
20260903194003 77 185 0.0 2.0 0.02 0.53 0.53 89 1013.2
20260903193502 77 159 0.0 3.0 0.02 0.53 0.53 89 1013.0
20260903192501 76 353 0.0 2.0 0.04 0.53 0.53 89 1012.9
20260903192006 76 295 0.0 2.0 0.21 0.53 0.53 89 1013.1
20260903191516 76 54 0.0 1.0 0.37 0.52 0.52 88 1013.2
20260903191004 76 54 0.0 1.0 0.52 0.52 0.52 88 1013.2
20260903190501 75 81 1.0 4.0 0.52 0.52 0.52 88 1013.2
20260903190028 75 353 2.0 6.0 0.52 0.52 0.52 88 1013.2
20260903185502 75 353 1.0 6.0 0.52 0.52 0.52 82 1013.0
20260903185003 75 10 0.0 3.0 0.52 0.52 0.52 82 1013.2
20260903184003 75 143 2.0 12.0 0.51 0.51 0.51 82 1013.4
20260903183503 75 143 3.0 12.0 0.51 0.51 0.51 82 1013.5
20260903183026 76 99 5.0 12.0 0.51 0.51 0.51 82 1013.6
20260903182503 76 94 6.0 13.0 0.49 0.49 0.49 81 1013.5
20260903182004 79 162 6.0 13.0 0.32 0.32 0.32 76 1014.1
20260903181518 83 139 4.0 13.0 0.15 0.15 0.15 76 1014.2
20260903181004 85 133 3.0 9.0 0.00 0.00 0.00 73 1013.8
20260903180504 86 329 3.0 7.0 0.00 0.00 0.00 72 1013.5
20260903180026 86 22 3.0 9.0 0.00 0.00 0.00 71 1013.4
20260903175004 86 50 3.0 8.0 0.00 0.00 0.00 70 1013.4
20260903174518 86 312 3.0 8.0 0.00 0.00 0.00 69 1013.6
20260903174004 87 267 3.0 8.0 0.00 0.00 0.00 68 1013.6
20260903173501 87 5 3.0 7.0 0.00 0.00 0.00 68 1013.6
20260903173025 88 48 3.0 5.0 0.00 0.00 0.00 70 1013.4
20260903172502 88 2 2.0 5.0 0.00 0.00 0.00 70 1013.3
20260903172004 88 55 3.0 5.0 0.00 0.00 0.00 70 1013.2
20260903171516 88 27 3.0 5.0 0.00 0.00 0.00 70 1013.1
20260903171002 88 317 3.0 6.0 0.00 0.00 0.00 70 1013.3
20260903165503 88 245 2.0 4.0 0.00 0.00 0.00 71 1013.3
20260903165003 88 323 1.0 4.0 0.00 0.00 0.00 71 1013.4
20260903164518 88 245 2.0 5.0 0.00 0.00 0.00 73 1013.6
20260903164004 88 204 2.0 8.0 0.00 0.00 0.00 72 1013.7
20260903163503 88 344 2.0 7.0 0.00 0.00 0.00 72 1013.6
20260903162502 88 262 2.0 4.0 0.00 0.00 0.00 72 1013.5
20260903162004 88 210 2.0 5.0 0.00 0.00 0.00 71 1013.5
20260903161517 88 296 3.0 9.0 0.00 0.00 0.00 72 1013.5
20260903161003 88 339 3.0 9.0 0.00 0.00 0.00 70 1013.5
20260903160503 88 212 2.0 6.0 0.00 0.00 0.00 71 1013.4
20260903160026 88 202 2.0 6.0 0.00 0.00 0.00 71 1013.4
20260903154516 87 136 2.0 4.0 0.00 0.00 0.00 72 1013.5
20260903154002 87 332 1.0 3.0 0.00 0.00 0.00 75 1013.5
20260903153501 86 56 1.0 3.0 0.00 0.00 0.00 76 1013.5
20260903153027 86 87 1.0 3.0 0.00 0.00 0.00 76 1013.6
20260903152003 85 76 1.0 3.0 0.00 0.00 0.00 78 1013.6
20260903151517 85 171 1.0 4.0 0.00 0.00 0.00 78 1013.7
20260903151003 85 99 1.0 4.0 0.00 0.00 0.00 78 1013.7
20260903150502 84 111 1.0 3.0 0.00 0.00 0.00 78 1013.8
20260903150027 84 184 1.0 4.0 0.00 0.00 0.00 79 1013.8
20260903145501 84 116 1.0 3.0 0.00 0.00 0.00 78 1013.9
20260903145002 84 118 2.0 6.0 0.00 0.00 0.00 79 1013.9
20260903144517 84 139 1.0 8.0 0.00 0.00 0.00 79 1013.9
20260903144002 84 159 1.0 4.0 0.00 0.00 0.00 79 1013.8
20260903143501 84 173 1.0 4.0 0.00 0.00 0.00 79 1013.8
20260903143026 84 127 2.0 6.0 0.00 0.00 0.00 80 1013.8
20260903142501 84 110 1.0 6.0 0.00 0.00 0.00 79 1013.8
20260903141516 84 353 2.0 5.0 0.00 0.00 0.00 79 1013.7
20260903141002 84 353 2.0 5.0 0.00 0.00 0.00 80 1013.7
20260903140503 83 104 2.0 5.0 0.00 0.00 0.00 80 1013.8
20260903140026 83 70 1.0 5.0 0.00 0.00 0.00 81 1013.8
20260903135502 83 134 1.0 5.0 0.00 0.00 0.00 81 1013.8
20260903135002 83 143 1.0 3.0 0.00 0.00 0.00 81 1013.7
20260903134517 83 147 1.0 4.0 0.00 0.00 0.00 81 1013.7
20260903134003 83 139 1.0 3.0 0.00 0.00 0.00 82 1013.7
20260903133502 82 163 1.0 6.0 0.00 0.00 0.00 82 1013.6
20260903133025 82 116 1.0 6.0 0.00 0.00 0.00 82 1013.6
20260903131517 82 164 0.0 2.0 0.00 0.00 0.00 82 1013.5
20260903131002 82 104 0.0 2.0 0.00 0.00 0.00 81 1013.5
20260903130502 82 166 0.0 2.0 0.00 0.00 0.00 81 1013.4
20260903130024 81 353 0.0 1.0 0.00 0.00 0.00 80 1013.4
20260903125500 81 353 0.0 2.0 0.00 0.00 0.00 80 1013.4
20260903124515 81 151 1.0 2.0 0.00 0.00 0.00 80 1013.3
20260903124002 81 146 0.0 2.0 0.00 0.00 0.00 79 1013.2
20260903123501 81 185 1.0 4.0 0.00 0.00 0.00 79 1013.1
20260903123025 81 193 1.0 4.0 0.00 0.00 0.00 79 1013.1
20260903122500 82 159 1.0 5.0 0.00 0.00 0.00 79 1013.0
20260903122001 82 161 1.0 4.0 0.00 0.00 0.00 79 1012.9
20260903120025 81 157 1.0 4.0 0.00 0.00 0.00 80 1012.8
20260903115002 82 146 2.0 4.0 0.00 0.00 0.00 81 1012.7
20260903114516 82 157 2.0 6.0 0.00 0.00 0.00 81 1012.7
20260903114002 82 144 2.0 6.0 0.00 0.00 0.00 82 1012.7
20260903113503 82 140 2.0 5.0 0.00 0.00 0.00 82 1012.7
20260903113024 82 131 1.0 3.0 0.00 0.00 0.00 82 1012.7
20260903112502 82 197 1.0 3.0 0.00 0.00 0.00 82 1012.8
20260903112003 82 139 1.0 6.0 0.00 0.00 0.00 82 1012.8
20260903111517 82 202 1.0 6.0 0.00 0.00 0.00 82 1012.8
20260903111003 82 203 1.0 5.0 0.00 0.00 0.00 81 1012.8
20260903110501 82 173 1.0 5.0 0.00 0.00 0.00 81 1012.7
20260903110026 82 353 1.0 3.0 0.00 0.00 0.00 81 1012.7
20260903105002 82 167 2.0 4.0 0.00 0.00 0.00 81 1012.6
20260903104516 82 163 2.0 4.0 0.00 0.00 0.00 82 1012.5
20260903104002 82 181 2.0 5.0 0.00 0.00 0.00 82 1012.4
20260903103500 82 162 2.0 6.0 0.00 0.00 0.00 82 1012.4
20260903103024 82 188 2.0 6.0 0.00 0.00 0.00 82 1012.4
20260903102500 82 353 1.0 4.0 0.00 0.00 0.00 82 1012.3
20260903102002 82 353 1.0 4.0 0.00 0.00 0.00 82 1012.4
20260903100500 82 198 1.0 5.0 0.00 0.00 0.00 82 1012.4
20260903100026 82 160 1.0 5.0 0.00 0.00 0.00 82 1012.4
20260903095500 82 159 1.0 4.0 0.00 0.00 0.00 81 1012.3
20260903095002 82 173 1.0 4.0 0.00 0.00 0.00 81 1012.4
20260903094002 82 197 1.0 5.0 0.00 0.00 0.00 81 1012.3
20260903093501 82 218 2.0 6.0 0.00 0.00 0.00 81 1012.4
20260903093026 83 152 2.0 6.0 0.00 0.00 0.00 81 1012.5
20260903092500 83 353 2.0 6.0 0.00 0.00 0.00 81 1012.5
20260903092001 83 220 2.0 5.0 0.00 0.00 0.00 81 1012.5
20260903091515 83 144 2.0 5.0 0.00 0.00 0.00 81 1012.5
20260903091002 83 162 2.0 6.0 0.00 0.00 0.00 80 1012.4
20260903090500 83 243 2.0 5.0 0.00 0.00 0.00 80 1012.4
20260903090023 83 136 2.0 4.0 0.00 0.00 0.00 80 1012.3
20260903085501 83 196 2.0 7.0 0.00 0.00 0.00 80 1012.3
20260903085002 83 114 2.0 7.0 0.00 0.00 0.00 80 1012.3
20260903084515 83 163 2.0 5.0 0.00 0.00 0.00 80 1012.3
20260903084002 83 157 2.0 6.0 0.00 0.00 0.00 80 1012.3
20260903083500 83 152 2.0 6.0 0.00 0.00 0.00 80 1012.2
20260903083027 83 160 2.0 7.0 0.00 0.00 0.00 80 1012.2
20260903082501 83 187 2.0 6.0 0.00 0.00 0.00 80 1012.2
20260903082002 83 146 2.0 7.0 0.00 0.00 0.00 80 1012.2
20260903081000 83 180 2.0 5.0 0.00 0.00 0.00 80 1012.1
20260903080459 83 217 2.0 5.0 0.00 0.00 0.00 80 1012.2
20260903080023 83 353 2.0 5.0 0.00 0.00 0.00 80 1012.1
20260903075501 83 181 2.0 6.0 0.00 0.00 0.00 80 1012.2
20260903075001 83 165 2.0 6.0 0.00 0.00 0.00 80 1012.1
20260903074515 82 165 3.0 8.0 0.00 0.00 0.00 80 1012.1
20260903074002 82 353 3.0 8.0 0.00 0.00 0.00 81 1012.1
20260903073500 82 158 2.0 8.0 0.00 0.00 0.00 81 1012.1
20260903073026 82 149 3.0 8.0 0.00 0.00 0.00 81 1012.1
20260903072500 82 166 2.0 6.0 0.00 0.00 0.00 81 1012.2
20260903072002 82 229 2.0 7.0 0.00 0.00 0.00 82 1012.2
20260903071515 82 7 2.0 9.0 0.00 0.00 0.00 82 1012.3
20260903071002 82 139 2.0 9.0 0.00 0.00 0.00 82 1012.2
20260903070023 82 197 2.0 7.0 0.00 0.00 0.00 82 1012.3
20260903065459 82 241 2.0 7.0 0.00 0.00 0.00 82 1012.4
20260903065000 82 353 2.0 4.0 0.00 0.00 0.00 83 1012.5
20260903064514 82 163 1.0 4.0 0.00 0.00 0.00 83 1012.6
20260903064000 82 156 1.0 5.0 0.00 0.00 0.00 83 1012.5
20260903063459 82 353 1.0 5.0 0.00 0.00 0.00 83 1012.6
20260903063022 82 353 2.0 6.0 0.00 0.00 0.00 82 1012.5
20260903062459 82 353 2.0 5.0 0.00 0.00 0.00 82 1012.6
20260903062000 83 353 2.0 7.0 0.00 0.00 0.00 82 1012.7
20260903061514 83 168 2.0 7.0 0.00 0.00 0.00 81 1012.8
20260903061000 83 158 1.0 4.0 0.00 0.00 0.00 81 1012.9
20260903060500 83 353 2.0 6.0 0.00 0.00 0.00 81 1013.0
20260903060029 83 111 2.0 9.0 0.00 0.00 0.00 80 1013.2
20260903055504 83 155 2.0 8.0 0.00 0.00 0.00 80 1013.2
20260903055005 83 176 2.0 6.0 0.00 0.00 0.00 80 1013.2
20260903054519 84 145 1.0 4.0 0.00 0.00 0.00 79 1013.3
20260903054005 84 152 2.0 4.0 0.00 0.00 0.00 79 1013.3
20260903053504 84 156 2.0 4.0 0.00 0.00 0.00 78 1013.3
20260903053029 84 161 1.0 6.0 0.00 0.00 0.00 78 1013.4
20260903052505 84 177 2.0 6.0 0.00 0.00 0.00 78 1013.5
20260903052005 84 140 2.0 6.0 0.00 0.00 0.00 77 1013.6
20260903051519 84 173 2.0 5.0 0.00 0.00 0.00 77 1013.7
20260903051006 84 152 2.0 5.0 0.00 0.00 0.00 77 1013.8
20260903050505 85 208 2.0 5.0 0.00 0.00 0.00 77 1013.8
20260903050029 85 183 2.0 6.0 0.00 0.00 0.00 77 1013.8
20260903045504 85 166 1.0 4.0 0.00 0.00 0.00 77 1013.8
20260903045005 85 196 1.0 4.0 0.00 0.00 0.00 77 1013.8
20260903044519 85 129 1.0 4.0 0.00 0.00 0.00 77 1013.8
20260903044006 85 353 1.0 4.0 0.00 0.00 0.00 77 1013.8
20260903043505 85 166 1.0 4.0 0.00 0.00 0.00 77 1013.9
20260903043028 85 228 1.0 4.0 0.00 0.00 0.00 77 1013.9
20260903042504 85 167 1.0 4.0 0.00 0.00 0.00 77 1013.9
20260903042005 85 160 2.0 7.0 0.00 0.00 0.00 77 1013.9
20260903041519 85 241 2.0 8.0 0.00 0.00 0.00 77 1013.8
20260903041005 85 353 2.0 8.0 0.00 0.00 0.00 77 1013.7
20260903040030 85 139 3.0 8.0 0.00 0.00 0.00 77 1013.4
20260903035504 85 131 2.0 8.0 0.00 0.00 0.00 77 1013.3
20260903035006 85 192 2.0 6.0 0.00 0.00 0.00 77 1013.3
20260903034519 85 154 2.0 6.0 0.00 0.00 0.00 77 1013.3
20260903034006 85 151 2.0 5.0 0.00 0.00 0.00 77 1013.3
20260903033504 85 88 2.0 5.0 0.00 0.00 0.00 76 1013.4
20260903033025 85 120 2.0 8.0 0.00 0.00 0.00 76 1013.3